Epoch 2008 Nov. 30.0 TT = JDT 2454800.5 T 2008 Dec. 9.27116 TT MPC q 1.9402351 (2000.0) P Q n 0.14049050 Peri. 355.03882 -0.24491992 -0.96347594 a 3.6646971 Node 109.10646 +0.89343474 -0.26766296 e 0.4705606 Incl. 6.58120 +0.37654826 +0.00840514 P 7.02
m1 = 9.5 + 5 logΔ + 25 log r(t - 50)